| time (UTC) | temp F | wind direction | speed knots | gust knots | rain 1hr in | rain 24hr in | rain mn in | humidity % | barometer mb |
| 20260510225936 | 80 | 306 | 0.0 | 3.5 | 0.00 | 0.00 | 0.00 | 24 | 1013.6 |
| 20260510225433 | 80 | 262 | 0.0 | 2.6 | 0.00 | 0.00 | 0.00 | 24 | 1013.8 |
| 20260510224927 | 79 | 23 | 0.0 | 2.6 | 0.00 | 0.00 | 0.00 | 24 | 1013.8 |
| 20260510224425 | 79 | 276 | 2.6 | 5.2 | 0.00 | 0.00 | 0.00 | 26 | 1013.8 |
| 20260510223921 | 79 | 255 | 2.6 | 4.3 | 0.00 | 0.00 | 0.00 | 24 | 1014.2 |
| 20260510223419 | 79 | 270 | 1.7 | 4.3 | 0.00 | 0.00 | 0.00 | 25 | 1013.9 |
| 20260510222915 | 79 | 245 | 3.5 | 5.2 | 0.00 | 0.00 | 0.00 | 27 | 1014.0 |
| 20260510222414 | 81 | 348 | 3.5 | 4.3 | 0.00 | 0.00 | 0.00 | 24 | 1014.0 |
| 20260510221908 | 80 | 35 | 3.5 | 4.3 | 0.00 | 0.00 | 0.00 | 23 | 1014.1 |
| 20260510221405 | 81 | 0 | 0.0 | 3.5 | 0.00 | 0.00 | 0.00 | 23 | 1014.1 |
| 20260510220901 | 80 | 279 | 0.0 | 2.6 | 0.00 | 0.00 | 0.00 | 25 | 1014.2 |
| 20260510220358 | 80 | 345 | 1.7 | 4.3 | 0.00 | 0.00 | 0.00 | 26 | 1014.5 |
| 20260510215854 | 80 | 289 | 1.7 | 6.1 | 0.00 | 0.00 | 0.00 | 24 | 1014.0 |
| 20260510215351 | 81 | 339 | 1.7 | 2.6 | 0.00 | 0.00 | 0.00 | 25 | 1014.1 |
| 20260510214849 | 80 | 354 | 2.6 | 3.5 | 0.00 | 0.00 | 0.00 | 26 | 1014.7 |
| 20260510214346 | 78 | 258 | 1.7 | 7.0 | 0.00 | 0.00 | 0.00 | 25 | 1014.5 |
| 20260510213843 | 78 | 342 | 3.5 | 7.8 | 0.00 | 0.00 | 0.00 | 28 | 1014.8 |
| 20260510213339 | 79 | 315 | 3.5 | 4.3 | 0.00 | 0.00 | 0.00 | 28 | 1014.7 |
| 20260510212835 | 78 | 27 | 2.6 | 3.5 | 0.00 | 0.00 | 0.00 | 28 | 1014.8 |
| 20260510212333 | 76 | 151 | 0.0 | 4.3 | 0.00 | 0.00 | 0.00 | 27 | 1015.0 |
| 20260510211830 | 78 | 23 | 0.0 | 3.5 | 0.00 | 0.00 | 0.00 | 28 | 1015.2 |
| 20260510211325 | 77 | 23 | 2.6 | 3.5 | 0.00 | 0.00 | 0.00 | 29 | 1015.4 |
| 20260510210821 | 77 | 25 | 2.6 | 4.3 | 0.00 | 0.00 | 0.00 | 31 | 1015.2 |
| 20260510210322 | 75 | 15 | 1.7 | 2.6 | 0.00 | 0.00 | 0.00 | 29 | 1015.2 |
| 20260510205816 | 74 | 21 | 2.6 | 2.6 | 0.00 | 0.00 | 0.00 | 28 | 1015.4 |
| 20260510205311 | 74 | 35 | 0.9 | 2.6 | 0.00 | 0.00 | 0.00 | 31 | 1015.5 |
| 20260510204808 | 74 | 11 | 0.0 | 4.3 | 0.00 | 0.00 | 0.00 | 30 | 1015.6 |
| 20260510204304 | 74 | 14 | 1.7 | 2.6 | 0.00 | 0.00 | 0.00 | 29 | 1015.6 |
| 20260510203801 | 74 | 310 | 2.6 | 4.3 | 0.00 | 0.00 | 0.00 | 27 | 1015.8 |
| 20260510203259 | 74 | 38 | 1.7 | 3.5 | 0.00 | 0.00 | 0.00 | 28 | 1015.8 |
| 20260510202758 | 74 | 326 | 1.7 | 4.3 | 0.00 | 0.00 | 0.00 | 29 | 1015.8 |
| 20260510202254 | 76 | 305 | 1.7 | 4.3 | 0.00 | 0.00 | 0.00 | 29 | 1016.0 |
| 20260510201751 | 75 | 337 | 0.0 | 3.5 | 0.00 | 0.00 | 0.00 | 27 | 1016.0 |
| 20260510201248 | 74 | 203 | 0.9 | 2.6 | 0.00 | 0.00 | 0.00 | 27 | 1016.4 |
| 20260510200745 | 73 | 0 | 0.9 | 3.5 | 0.00 | 0.00 | 0.00 | 28 | 1016.4 |
| 20260510200243 | 75 | 20 | 0.0 | 1.7 | 0.00 | 0.00 | 0.00 | 28 | 1016.2 |
| 20260510195739 | 73 | 315 | 1.7 | 2.6 | 0.00 | 0.00 | 0.00 | 32 | 1016.2 |
| 20260510195236 | 74 | 29 | 0.0 | 4.3 | 0.00 | 0.00 | 0.00 | 29 | 1016.5 |
| 20260510194735 | 74 | 17 | 2.6 | 4.3 | 0.00 | 0.00 | 0.00 | 33 | 1016.4 |
| 20260510194232 | 73 | 69 | 4.3 | 5.2 | 0.00 | 0.00 | 0.00 | 31 | 1016.7 |
| 20260510193728 | 73 | 23 | 1.7 | 4.3 | 0.00 | 0.00 | 0.00 | 32 | 1016.8 |
| 20260510193222 | 73 | 350 | 2.6 | 6.1 | 0.00 | 0.00 | 0.00 | 34 | 1016.8 |
| 20260510192718 | 72 | 66 | 2.6 | 4.3 | 0.00 | 0.00 | 0.00 | 35 | 1016.8 |
| 20260510192214 | 71 | 18 | 0.0 | 5.2 | 0.00 | 0.00 | 0.00 | 33 | 1016.9 |
| 20260510191710 | 72 | 270 | 4.3 | 4.3 | 0.00 | 0.00 | 0.00 | 36 | 1017.1 |
| 20260510191206 | 71 | 35 | 0.9 | 4.3 | 0.00 | 0.00 | 0.00 | 36 | 1017.1 |
| 20260510190704 | 71 | 6 | 2.6 | 2.6 | 0.00 | 0.00 | 0.00 | 35 | 1017.4 |
| 20260510190201 | 70 | 26 | 2.6 | 4.3 | 0.00 | 0.00 | 0.00 | 37 | 1017.5 |
| 20260510185658 | 69 | 306 | 0.9 | 4.3 | 0.00 | 0.00 | 0.00 | 40 | 1017.7 |
| 20260510185156 | 69 | 85 | 1.7 | 4.3 | 0.00 | 0.00 | 0.00 | 38 | 1017.4 |
| 20260510184652 | 68 | 304 | 1.7 | 2.6 | 0.00 | 0.00 | 0.00 | 41 | 1017.7 |
| 20260510184148 | 68 | 330 | 2.6 | 4.3 | 0.00 | 0.00 | 0.00 | 39 | 1017.8 |
| 20260510183645 | 67 | 289 | 0.9 | 5.2 | 0.00 | 0.00 | 0.00 | 41 | 1017.9 |
| 20260510183139 | 66 | 270 | 0.9 | 3.5 | 0.00 | 0.00 | 0.00 | 40 | 1017.9 |
| 20260510182636 | 66 | 278 | 0.9 | 5.2 | 0.00 | 0.00 | 0.00 | 40 | 1018.1 |
| 20260510182131 | 66 | 240 | 2.6 | 3.5 | 0.00 | 0.00 | 0.00 | 43 | 1018.0 |
| 20260510181629 | 65 | 317 | 3.5 | 4.3 | 0.00 | 0.00 | 0.00 | 44 | 1018.2 |
| 20260510181125 | 64 | 335 | 2.6 | 4.3 | 0.00 | 0.00 | 0.00 | 43 | 1018.2 |
| 20260510180621 | 65 | 263 | 3.5 | 3.5 | 0.00 | 0.00 | 0.00 | 44 | 1018.2 |
| 20260510180119 | 65 | 60 | 2.6 | 2.6 | 0.00 | 0.00 | 0.00 | 46 | 1018.5 |
| 20260510175615 | 63 | 318 | 2.6 | 4.3 | 0.00 | 0.00 | 0.00 | 46 | 1018.7 |
| 20260510175110 | 63 | 17 | 2.6 | 3.5 | 0.00 | 0.00 | 0.00 | 46 | 1018.5 |
| 20260510174609 | 62 | 334 | 2.6 | 7.0 | 0.00 | 0.00 | 0.00 | 46 | 1018.8 |
| 20260510174106 | 64 | 353 | 0.0 | 3.5 | 0.00 | 0.00 | 0.00 | 45 | 1018.8 |
| 20260510173601 | 62 | 35 | 0.0 | 3.5 | 0.00 | 0.00 | 0.00 | 45 | 1019.0 |
| 20260510173058 | 62 | 278 | 5.2 | 5.2 | 0.00 | 0.00 | 0.00 | 46 | 1018.8 |
| 20260510172553 | 62 | 3 | 3.5 | 4.3 | 0.00 | 0.00 | 0.00 | 47 | 1019.1 |
| 20260510172050 | 60 | 279 | 3.5 | 5.2 | 0.00 | 0.00 | 0.00 | 48 | 1019.0 |
| 20260510171547 | 60 | 258 | 4.3 | 5.2 | 0.00 | 0.00 | 0.00 | 49 | 1019.1 |
| 20260510171044 | 61 | 272 | 3.5 | 5.2 | 0.00 | 0.00 | 0.00 | 50 | 1019.3 |
| 20260510170540 | 61 | 2 | 2.6 | 3.5 | 0.00 | 0.00 | 0.00 | 48 | 1019.2 |
| 20260510170037 | 60 | 180 | 0.0 | 4.3 | 0.00 | 0.00 | 0.00 | 47 | 1019.1 |
| 20260510165533 | 61 | 264 | 0.9 | 4.3 | 0.00 | 0.00 | 0.00 | 48 | 1019.0 |
| 20260510165029 | 61 | 346 | 2.6 | 2.6 | 0.00 | 0.00 | 0.00 | 48 | 1019.1 |
| 20260510164526 | 59 | 184 | 1.7 | 2.6 | 0.00 | 0.00 | 0.00 | 49 | 1019.6 |
| 20260510164022 | 60 | 266 | 1.7 | 3.5 | 0.00 | 0.00 | 0.00 | 50 | 1019.5 |
| 20260510163513 | 58 | 322 | 1.7 | 3.5 | 0.00 | 0.00 | 0.00 | 54 | 1019.6 |
| 20260510163009 | 58 | 307 | 0.0 | 3.5 | 0.00 | 0.00 | 0.00 | 52 | 1019.5 |
| 20260510162504 | 57 | 31 | 2.6 | 4.3 | 0.00 | 0.00 | 0.00 | 53 | 1019.7 |
| 20260510162001 | 57 | 346 | 2.6 | 4.3 | 0.00 | 0.00 | 0.00 | 53 | 1019.6 |
| 20260510161457 | 57 | 290 | 1.7 | 2.6 | 0.00 | 0.00 | 0.00 | 54 | 1019.7 |
| 20260510160954 | 56 | 12 | 0.0 | 2.6 | 0.00 | 0.00 | 0.00 | 56 | 1019.7 |
| 20260510160451 | 56 | 262 | 0.9 | 3.5 | 0.00 | 0.00 | 0.00 | 54 | 1019.7 |
| 20260510155949 | 56 | 63 | 1.7 | 2.6 | 0.00 | 0.00 | 0.00 | 55 | 1019.7 |
| 20260510155447 | 54 | 270 | 0.0 | 3.5 | 0.00 | 0.00 | 0.00 | 57 | 1019.6 |
| 20260510154943 | 54 | 300 | 2.6 | 4.3 | 0.00 | 0.00 | 0.00 | 58 | 1020.2 |
| 20260510154439 | 54 | 347 | 2.6 | 5.2 | 0.00 | 0.00 | 0.00 | 57 | 1019.6 |
| 20260510153938 | 54 | 313 | 2.6 | 3.5 | 0.00 | 0.00 | 0.00 | 58 | 1020.0 |
| 20260510153435 | 53 | 279 | 2.6 | 4.3 | 0.00 | 0.00 | 0.00 | 59 | 1020.0 |
| 20260510152931 | 53 | 270 | 0.0 | 2.6 | 0.00 | 0.00 | 0.00 | 59 | 1020.0 |
| 20260510152429 | 53 | 282 | 3.5 | 4.3 | 0.00 | 0.00 | 0.00 | 59 | 1020.1 |
| 20260510151925 | 53 | 329 | 2.6 | 3.5 | 0.00 | 0.00 | 0.00 | 59 | 1020.3 |
| 20260510151422 | 52 | 297 | 0.0 | 4.3 | 0.00 | 0.00 | 0.00 | 59 | 1020.1 |
| 20260510150918 | 52 | 16 | 3.5 | 4.3 | 0.00 | 0.00 | 0.00 | 59 | 1020.2 |
| 20260510150414 | 53 | 14 | 1.7 | 2.6 | 0.00 | 0.00 | 0.00 | 58 | 1020.2 |
| 20260510145910 | 54 | 116 | 2.6 | 3.5 | 0.00 | 0.00 | 0.00 | 56 | 1020.5 |
| 20260510145407 | 53 | 33 | 1.7 | 4.3 | 0.00 | 0.00 | 0.00 | 60 | 1020.5 |
| 20260510144903 | 52 | 36 | 1.7 | 1.7 | 0.00 | 0.00 | 0.00 | 60 | 1020.5 |
| 20260510144400 | 51 | 6 | 2.6 | 3.5 | 0.00 | 0.00 | 0.00 | 64 | 1020.6 |
| 20260510143855 | 50 | 19 | 1.7 | 3.5 | 0.00 | 0.00 | 0.00 | 66 | 1020.5 |
| 20260510143351 | 50 | 15 | 0.0 | 2.6 | 0.00 | 0.00 | 0.00 | 66 | 1020.3 |
| 20260510142848 | 51 | 29 | 0.0 | 2.6 | 0.00 | 0.00 | 0.00 | 65 | 1020.7 |
| 20260510142345 | 48 | 29 | 0.0 | 0.9 | 0.00 | 0.00 | 0.00 | 70 | 1020.3 |
| 20260510141842 | 48 | 344 | 1.7 | 3.5 | 0.00 | 0.00 | 0.00 | 71 | 1020.6 |
| 20260510141339 | 48 | 278 | 0.9 | 1.7 | 0.00 | 0.00 | 0.00 | 69 | 1020.7 |
| 20260510140836 | 48 | 283 | 1.7 | 3.5 | 0.00 | 0.00 | 0.00 | 70 | 1020.3 |
| 20260510140332 | 48 | 165 | 0.0 | 2.6 | 0.00 | 0.00 | 0.00 | 68 | 1020.5 |
| 20260510135825 | 46 | 54 | 0.9 | 2.6 | 0.00 | 0.00 | 0.00 | 71 | 1020.5 |
| 20260510135321 | 46 | 53 | 1.7 | 2.6 | 0.00 | 0.00 | 0.00 | 72 | 1020.6 |
| 20260510134819 | 46 | 79 | 1.7 | 4.3 | 0.00 | 0.00 | 0.00 | 72 | 1020.5 |
| 20260510134316 | 46 | 72 | 1.7 | 5.2 | 0.00 | 0.00 | 0.00 | 71 | 1020.6 |
| 20260510133812 | 46 | 111 | 4.3 | 7.0 | 0.00 | 0.00 | 0.00 | 71 | 1020.8 |
| 20260510133308 | 45 | 99 | 3.5 | 5.2 | 0.00 | 0.00 | 0.00 | 72 | 1020.7 |
| 20260510132803 | 45 | 95 | 4.3 | 5.2 | 0.00 | 0.00 | 0.00 | 72 | 1020.8 |
| 20260510132305 | 45 | 113 | 5.2 | 6.1 | 0.00 | 0.00 | 0.00 | 73 | 1020.6 |
| 20260510131758 | 44 | 118 | 2.6 | 5.2 | 0.00 | 0.00 | 0.00 | 73 | 1020.8 |
| 20260510131256 | 44 | 116 | 5.2 | 6.1 | 0.00 | 0.00 | 0.00 | 73 | 1020.6 |
| 20260510130752 | 44 | 90 | 2.6 | 6.1 | 0.00 | 0.00 | 0.00 | 74 | 1020.5 |
| 20260510130250 | 43 | 134 | 2.6 | 7.8 | 0.00 | 0.00 | 0.00 | 75 | 1020.7 |
| 20260510125746 | 43 | 107 | 4.3 | 6.1 | 0.00 | 0.00 | 0.00 | 75 | 1020.6 |
| 20260510125242 | 43 | 72 | 4.3 | 7.8 | 0.00 | 0.00 | 0.00 | 75 | 1020.7 |
| 20260510124739 | 43 | 103 | 3.5 | 6.1 | 0.00 | 0.00 | 0.00 | 75 | 1020.5 |
| 20260510124237 | 42 | 139 | 1.7 | 4.3 | 0.00 | 0.00 | 0.00 | 77 | 1020.5 |
| 20260510123731 | 43 | 130 | 4.3 | 5.2 | 0.00 | 0.00 | 0.00 | 76 | 1020.7 |
| 20260510123228 | 43 | 111 | 2.6 | 6.1 | 0.00 | 0.00 | 0.00 | 75 | 1020.5 |
| 20260510122724 | 43 | 130 | 3.5 | 6.1 | 0.00 | 0.00 | 0.00 | 75 | 1020.6 |
| 20260510122220 | 42 | 111 | 3.5 | 3.5 | 0.00 | 0.00 | 0.00 | 77 | 1020.3 |
| 20260510121717 | 42 | 112 | 2.6 | 5.2 | 0.00 | 0.00 | 0.00 | 77 | 1020.5 |
| 20260510121215 | 42 | 135 | 2.6 | 7.0 | 0.00 | 0.00 | 0.00 | 77 | 1020.3 |
| 20260510120711 | 42 | 117 | 3.5 | 6.1 | 0.00 | 0.00 | 0.00 | 77 | 1020.7 |
| 20260510120208 | 43 | 110 | 3.5 | 6.1 | 0.00 | 0.00 | 0.00 | 76 | 1020.6 |
| 20260510115704 | 43 | 123 | 2.6 | 5.2 | 0.00 | 0.00 | 0.00 | 75 | 1020.7 |
| 20260510115202 | 43 | 90 | 2.6 | 3.5 | 0.00 | 0.00 | 0.00 | 76 | 1020.7 |
| 20260510114657 | 43 | 156 | 1.7 | 6.1 | 0.00 | 0.00 | 0.00 | 74 | 1020.8 |
| 20260510114154 | 43 | 125 | 3.5 | 5.2 | 0.00 | 0.00 | 0.00 | 76 | 1020.5 |
| 20260510113649 | 44 | 105 | 2.6 | 5.2 | 0.00 | 0.00 | 0.00 | 74 | 1020.9 |
| 20260510113146 | 44 | 94 | 4.3 | 7.0 | 0.00 | 0.00 | 0.00 | 74 | 1020.6 |
| 20260510112643 | 44 | 113 | 2.6 | 6.1 | 0.00 | 0.00 | 0.00 | 75 | 1020.8 |
| 20260510112140 | 43 | 114 | 3.5 | 4.3 | 0.00 | 0.00 | 0.00 | 77 | 1021.0 |
| 20260510111636 | 43 | 113 | 1.7 | 3.5 | 0.00 | 0.00 | 0.00 | 78 | 1021.0 |
| 20260510111132 | 43 | 117 | 0.9 | 2.6 | 0.00 | 0.00 | 0.00 | 77 | 1020.8 |
| 20260510110628 | 43 | 103 | 1.7 | 2.6 | 0.00 | 0.00 | 0.00 | 77 | 1020.8 |
| 20260510110125 | 44 | 138 | 0.0 | 2.6 | 0.00 | 0.00 | 0.00 | 76 | 1020.8 |
| 20260510105621 | 43 | 90 | 1.7 | 1.7 | 0.00 | 0.00 | 0.00 | 76 | 1020.9 |
| 20260510105115 | 44 | 116 | 2.6 | 3.5 | 0.00 | 0.00 | 0.00 | 75 | 1020.6 |
| 20260510104612 | 44 | 96 | 0.0 | 2.6 | 0.00 | 0.00 | 0.00 | 74 | 1020.5 |
| 20260510104109 | 44 | 120 | 0.0 | 1.7 | 0.00 | 0.00 | 0.00 | 74 | 1020.6 |
| 20260510103606 | 45 | 95 | 1.7 | 4.3 | 0.00 | 0.00 | 0.00 | 72 | 1020.9 |
| 20260510103102 | 45 | 123 | 2.6 | 6.1 | 0.00 | 0.00 | 0.00 | 72 | 1020.8 |
| 20260510102557 | 44 | 85 | 3.5 | 5.2 | 0.00 | 0.00 | 0.00 | 73 | 1020.8 |
| 20260510102053 | 44 | 110 | 3.5 | 5.2 | 0.00 | 0.00 | 0.00 | 73 | 1020.8 |
| 20260510101551 | 44 | 100 | 4.3 | 5.2 | 0.00 | 0.00 | 0.00 | 74 | 1020.7 |
| 20260510101050 | 44 | 103 | 4.3 | 4.3 | 0.00 | 0.00 | 0.00 | 74 | 1020.7 |
| 20260510100545 | 44 | 95 | 3.5 | 4.3 | 0.00 | 0.00 | 0.00 | 73 | 1020.9 |
| 20260510100043 | 44 | 107 | 3.5 | 4.3 | 0.00 | 0.00 | 0.00 | 73 | 1020.8 |
| 20260510095539 | 44 | 112 | 2.6 | 2.6 | 0.00 | 0.00 | 0.00 | 74 | 1021.0 |
| 20260510095038 | 45 | 103 | 2.6 | 4.3 | 0.00 | 0.00 | 0.00 | 73 | 1020.9 |
| 20260510094533 | 45 | 109 | 0.9 | 1.7 | 0.00 | 0.00 | 0.00 | 73 | 1020.8 |
| 20260510094028 | 45 | 119 | 1.7 | 2.6 | 0.00 | 0.00 | 0.00 | 71 | 1020.7 |
| 20260510093524 | 45 | 114 | 0.0 | 3.5 | 0.00 | 0.00 | 0.00 | 71 | 1020.8 |
| 20260510093021 | 45 | 115 | 2.6 | 3.5 | 0.00 | 0.00 | 0.00 | 71 | 1020.6 |
| 20260510092519 | 45 | 105 | 3.5 | 3.5 | 0.00 | 0.00 | 0.00 | 73 | 1020.7 |
| 20260510092018 | 44 | 135 | 1.7 | 1.7 | 0.00 | 0.00 | 0.00 | 74 | 1020.5 |
| 20260510091515 | 44 | 127 | 1.7 | 1.7 | 0.00 | 0.00 | 0.00 | 73 | 1020.8 |
| 20260510091011 | 45 | 96 | 1.7 | 1.7 | 0.00 | 0.00 | 0.00 | 71 | 1020.3 |
| 20260510090509 | 45 | 105 | 1.7 | 2.6 | 0.00 | 0.00 | 0.00 | 71 | 1020.6 |
| 20260510090004 | 45 | 77 | 1.7 | 2.6 | 0.00 | 0.00 | 0.00 | 71 | 1020.5 |
| 20260510085459 | 45 | 123 | 0.9 | 1.7 | 0.00 | 0.00 | 0.00 | 70 | 1020.5 |
| 20260510084955 | 46 | 144 | 0.0 | 1.7 | 0.00 | 0.00 | 0.00 | 69 | 1020.6 |
| 20260510084452 | 46 | 99 | 2.6 | 3.5 | 0.00 | 0.00 | 0.00 | 69 | 1020.3 |
| 20260510083949 | 46 | 83 | 2.6 | 2.6 | 0.00 | 0.00 | 0.00 | 70 | 1020.3 |
| 20260510083445 | 46 | 109 | 1.7 | 2.6 | 0.00 | 0.00 | 0.00 | 70 | 1020.2 |
| 20260510082940 | 48 | 157 | 0.0 | 2.6 | 0.00 | 0.00 | 0.00 | 67 | 1020.6 |
| 20260510082439 | 47 | 250 | 2.6 | 3.5 | 0.00 | 0.00 | 0.00 | 68 | 1020.8 |
| 20260510081938 | 47 | 199 | 2.6 | 4.3 | 0.00 | 0.00 | 0.00 | 67 | 1020.6 |
| 20260510081434 | 48 | 110 | 3.5 | 5.2 | 0.00 | 0.00 | 0.00 | 65 | 1020.2 |
| 20260510080930 | 48 | 114 | 2.6 | 7.8 | 0.00 | 0.00 | 0.00 | 64 | 1020.6 |
| 20260510080429 | 48 | 117 | 3.5 | 7.0 | 0.00 | 0.00 | 0.00 | 65 | 1020.6 |
| 20260510075926 | 47 | 126 | 3.5 | 5.2 | 0.00 | 0.00 | 0.00 | 66 | 1020.6 |
| 20260510075424 | 48 | 109 | 5.2 | 6.1 | 0.00 | 0.00 | 0.00 | 65 | 1020.6 |
| 20260510074920 | 47 | 118 | 6.1 | 6.1 | 0.00 | 0.00 | 0.00 | 66 | 1020.7 |
| 20260510074418 | 48 | 95 | 2.6 | 3.5 | 0.00 | 0.00 | 0.00 | 66 | 1020.6 |
| 20260510073914 | 48 | 107 | 2.6 | 3.5 | 0.00 | 0.00 | 0.00 | 66 | 1020.7 |
| 20260510073409 | 48 | 99 | 2.6 | 4.3 | 0.00 | 0.00 | 0.00 | 65 | 1020.5 |
| 20260510072906 | 49 | 97 | 2.6 | 2.6 | 0.00 | 0.00 | 0.00 | 64 | 1020.6 |
| 20260510072403 | 47 | 147 | 1.7 | 2.6 | 0.00 | 0.00 | 0.00 | 66 | 1020.8 |
| 20260510071858 | 48 | 110 | 1.7 | 2.6 | 0.00 | 0.00 | 0.00 | 65 | 1020.6 |
| 20260510071355 | 48 | 126 | 0.0 | 0.9 | 0.00 | 0.00 | 0.00 | 65 | 1020.6 |
| 20260510070854 | 49 | 114 | 0.9 | 2.6 | 0.00 | 0.00 | 0.00 | 64 | 1020.5 |
| 20260510070350 | 48 | 157 | 0.0 | 0.9 | 0.00 | 0.00 | 0.00 | 64 | 1020.5 |
| 20260510065850 | 48 | 144 | 1.7 | 2.6 | 0.00 | 0.00 | 0.00 | 64 | 1020.2 |
| 20260510065347 | 48 | 105 | 2.6 | 3.5 | 0.00 | 0.00 | 0.00 | 64 | 1020.2 |
| 20260510064844 | 49 | 112 | 1.7 | 2.6 | 0.00 | 0.00 | 0.00 | 64 | 1020.3 |
| 20260510064342 | 48 | 102 | 2.6 | 3.5 | 0.00 | 0.00 | 0.00 | 65 | 1020.2 |
| 20260510063838 | 49 | 121 | 2.6 | 2.6 | 0.00 | 0.00 | 0.00 | 62 | 1020.3 |
| 20260510063334 | 51 | 117 | 4.3 | 4.3 | 0.00 | 0.00 | 0.00 | 59 | 1020.6 |
| 20260510062831 | 50 | 101 | 2.6 | 3.5 | 0.00 | 0.00 | 0.00 | 61 | 1020.5 |
| 20260510062327 | 50 | 103 | 2.6 | 3.5 | 0.00 | 0.00 | 0.00 | 60 | 1020.3 |
| 20260510061822 | 49 | 101 | 1.7 | 3.5 | 0.00 | 0.00 | 0.00 | 62 | 1020.5 |
| 20260510061319 | 49 | 116 | 3.5 | 4.3 | 0.00 | 0.00 | 0.00 | 63 | 1020.2 |
| 20260510060815 | 50 | 113 | 1.7 | 4.3 | 0.00 | 0.00 | 0.00 | 62 | 1020.3 |
| 20260510060313 | 51 | 114 | 3.5 | 7.0 | 0.00 | 0.00 | 0.00 | 60 | 1020.2 |
| 20260510055809 | 51 | 108 | 5.2 | 5.2 | 0.00 | 0.00 | 0.00 | 59 | 1020.5 |
| 20260510055308 | 51 | 107 | 2.6 | 7.8 | 0.00 | 0.00 | 0.00 | 58 | 1020.3 |
| 20260510054807 | 52 | 93 | 2.6 | 5.2 | 0.00 | 0.00 | 0.00 | 58 | 1020.5 |
| 20260510054303 | 51 | 106 | 3.5 | 4.3 | 0.00 | 0.00 | 0.00 | 59 | 1020.1 |
| 20260510053758 | 51 | 108 | 2.6 | 3.5 | 0.00 | 0.00 | 0.00 | 60 | 1020.2 |
| 20260510053254 | 50 | 95 | 2.6 | 3.5 | 0.00 | 0.00 | 0.00 | 60 | 1020.3 |
| 20260510052750 | 50 | 112 | 2.6 | 2.6 | 0.00 | 0.00 | 0.00 | 61 | 1020.2 |
| 20260510052246 | 51 | 101 | 2.6 | 4.3 | 0.00 | 0.00 | 0.00 | 59 | 1020.0 |
| 20260510051742 | 51 | 101 | 1.7 | 3.5 | 0.00 | 0.00 | 0.00 | 60 | 1019.9 |
| 20260510051239 | 51 | 121 | 1.7 | 2.6 | 0.00 | 0.00 | 0.00 | 59 | 1020.0 |
| 20260510050736 | 52 | 101 | 4.3 | 4.3 | 0.00 | 0.00 | 0.00 | 58 | 1020.0 |
| 20260510050233 | 52 | 114 | 3.5 | 6.1 | 0.00 | 0.00 | 0.00 | 56 | 1020.0 |
| 20260510045730 | 52 | 83 | 3.5 | 4.3 | 0.00 | 0.00 | 0.00 | 56 | 1020.0 |
| 20260510045226 | 53 | 104 | 2.6 | 4.3 | 0.00 | 0.00 | 0.00 | 54 | 1019.8 |
| 20260510044723 | 54 | 99 | 2.6 | 4.3 | 0.00 | 0.00 | 0.00 | 51 | 1019.9 |
| 20260510044221 | 54 | 85 | 3.5 | 6.1 | 0.00 | 0.00 | 0.00 | 51 | 1019.9 |
| 20260510043715 | 54 | 107 | 3.5 | 4.3 | 0.00 | 0.00 | 0.00 | 53 | 1019.7 |
| 20260510043213 | 55 | 119 | 3.5 | 6.1 | 0.00 | 0.00 | 0.00 | 50 | 1019.7 |
| 20260510042710 | 55 | 103 | 4.3 | 8.7 | 0.00 | 0.00 | 0.00 | 50 | 1019.9 |
| 20260510042206 | 55 | 104 | 4.3 | 7.0 | 0.00 | 0.00 | 0.00 | 52 | 1019.8 |
| 20260510041703 | 55 | 95 | 5.2 | 6.1 | 0.00 | 0.00 | 0.00 | 52 | 1019.8 |
| 20260510041201 | 55 | 120 | 3.5 | 6.1 | 0.00 | 0.00 | 0.00 | 52 | 1019.6 |
| 20260510040657 | 55 | 119 | 4.3 | 6.1 | 0.00 | 0.00 | 0.00 | 52 | 1019.6 |
| 20260510040154 | 55 | 114 | 5.2 | 7.8 | 0.00 | 0.00 | 0.00 | 51 | 1019.5 |
| 20260510035649 | 55 | 118 | 8.7 | 8.7 | 0.00 | 0.00 | 0.00 | 51 | 1019.1 |
| 20260510035145 | 56 | 109 | 4.3 | 6.1 | 0.00 | 0.00 | 0.00 | 49 | 1019.3 |
| 20260510034642 | 57 | 90 | 4.3 | 6.1 | 0.00 | 0.00 | 0.00 | 49 | 1019.3 |
| 20260510034139 | 57 | 100 | 2.6 | 6.1 | 0.00 | 0.00 | 0.00 | 48 | 1019.2 |
| 20260510033635 | 57 | 95 | 2.6 | 7.8 | 0.00 | 0.00 | 0.00 | 48 | 1019.0 |
| 20260510033133 | 57 | 110 | 3.5 | 7.0 | 0.00 | 0.00 | 0.00 | 49 | 1018.9 |
| 20260510032629 | 57 | 105 | 5.2 | 8.7 | 0.00 | 0.00 | 0.00 | 48 | 1018.9 |
| 20260510032125 | 58 | 112 | 3.5 | 9.6 | 0.00 | 0.00 | 0.00 | 47 | 1019.2 |
| 20260510031620 | 58 | 80 | 2.6 | 7.8 | 0.00 | 0.00 | 0.00 | 47 | 1018.9 |
| 20260510031117 | 59 | 99 | 4.3 | 7.8 | 0.00 | 0.00 | 0.00 | 47 | 1018.9 |
| 20260510030611 | 60 | 112 | 3.5 | 7.0 | 0.00 | 0.00 | 0.00 | 45 | 1019.0 |
| 20260510030109 | 60 | 121 | 2.6 | 5.2 | 0.00 | 0.00 | 0.00 | 46 | 1018.8 |
| 20260510025606 | 60 | 110 | 4.3 | 7.0 | 0.00 | 0.00 | 0.00 | 46 | 1018.9 |
| 20260510025104 | 60 | 109 | 1.7 | 4.3 | 0.00 | 0.00 | 0.00 | 45 | 1018.8 |
| 20260510024600 | 61 | 99 | 2.6 | 5.2 | 0.00 | 0.00 | 0.00 | 44 | 1018.8 |
| 20260510024056 | 62 | 121 | 2.6 | 4.3 | 0.00 | 0.00 | 0.00 | 43 | 1018.7 |
| 20260510023553 | 62 | 144 | 1.7 | 4.3 | 0.00 | 0.00 | 0.00 | 42 | 1018.8 |
| 20260510023050 | 63 | 106 | 1.7 | 2.6 | 0.00 | 0.00 | 0.00 | 42 | 1018.5 |
| 20260510022549 | 63 | 106 | 2.6 | 2.6 | 0.00 | 0.00 | 0.00 | 41 | 1018.6 |
| 20260510022044 | 64 | 114 | 0.9 | 0.9 | 0.00 | 0.00 | 0.00 | 40 | 1018.6 |
| 20260510021541 | 66 | 198 | 0.0 | 0.0 | 0.00 | 0.00 | 0.00 | 40 | 1018.3 |
| 20260510021038 | 67 | 195 | 0.0 | 2.6 | 0.00 | 0.00 | 0.00 | 36 | 1018.7 |
| 20260510020532 | 68 | 251 | 0.0 | 2.6 | 0.00 | 0.00 | 0.00 | 33 | 1018.3 |
| 20260510020028 | 69 | 270 | 0.9 | 2.6 | 0.00 | 0.00 | 0.00 | 32 | 1018.7 |
| 20260510015524 | 68 | 290 | 1.7 | 2.6 | 0.00 | 0.00 | 0.00 | 31 | 1018.5 |
| 20260510015020 | 69 | 278 | 2.6 | 2.6 | 0.00 | 0.00 | 0.00 | 31 | 1018.3 |
| 20260510014517 | 69 | 278 | 0.0 | 2.6 | 0.00 | 0.00 | 0.00 | 31 | 1018.3 |
| 20260510014014 | 69 | 270 | 1.7 | 3.5 | 0.00 | 0.00 | 0.00 | 31 | 1018.5 |
| 20260510013508 | 71 | 247 | 1.7 | 2.6 | 0.00 | 0.00 | 0.00 | 30 | 1018.5 |
| 20260510013005 | 70 | 279 | 0.0 | 1.7 | 0.00 | 0.00 | 0.00 | 29 | 1018.1 |
| 20260510012459 | 70 | 252 | 1.7 | 3.5 | 0.00 | 0.00 | 0.00 | 30 | 1018.2 |
| 20260510011954 | 71 | 8 | 0.0 | 0.9 | 0.00 | 0.00 | 0.00 | 28 | 1018.2 |
| 20260510011449 | 72 | 315 | 1.7 | 1.7 | 0.00 | 0.00 | 0.00 | 28 | 1018.5 |
| 20260510010946 | 71 | 123 | 1.7 | 3.5 | 0.00 | 0.00 | 0.00 | 28 | 1018.2 |
| 20260510010443 | 72 | 7 | 0.9 | 2.6 | 0.00 | 0.00 | 0.00 | 30 | 1018.5 |
| 20260510005940 | 71 | 315 | 2.6 | 2.6 | 0.00 | 0.00 | 0.00 | 29 | 1018.0 |
| 20260510005436 | 70 | 245 | 5.2 | 5.2 | 0.00 | 0.00 | 0.00 | 30 | 1018.5 |
| 20260510004933 | 71 | 246 | 2.6 | 2.6 | 0.00 | 0.00 | 0.00 | 29 | 1018.1 |
| 20260510004430 | 71 | 274 | 2.6 | 4.3 | 0.00 | 0.00 | 0.00 | 29 | 1018.3 |
| 20260510003929 | 71 | 254 | 2.6 | 4.3 | 0.00 | 0.00 | 0.00 | 29 | 1018.3 |
| 20260510003425 | 72 | 258 | 1.7 | 4.3 | 0.00 | 0.00 | 0.00 | 29 | 1018.1 |
| 20260510002924 | 72 | 236 | 2.6 | 3.5 | 0.00 | 0.00 | 0.00 | 29 | 1018.2 |
| 20260510002422 | 71 | 307 | 2.6 | 7.0 | 0.00 | 0.00 | 0.00 | 31 | 1018.2 |
| 20260510001918 | 71 | 323 | 1.7 | 4.3 | 0.00 | 0.00 | 0.00 | 31 | 1018.2 |
| 20260510001416 | 70 | 285 | 3.5 | 7.0 | 0.00 | 0.00 | 0.00 | 32 | 1018.5 |
| 20260510000913 | 71 | 297 | 0.0 | 2.6 | 0.00 | 0.00 | 0.00 | 29 | 1018.2 |
| 20260510000411 | 71 | 257 | 3.5 | 3.5 | 0.00 | 0.00 | 0.00 | 30 | 1018.3 |
| 20260509235905 | 70 | 328 | 2.6 | 4.3 | 0.00 | 0.00 | 0.00 | 29 | 1018.5 |
| 20260509235403 | 70 | 0 | 1.7 | 7.0 | 0.00 | 0.00 | 0.00 | 30 | 1018.2 |
| 20260509234858 | 71 | 10 | 2.6 | 3.5 | 0.00 | 0.00 | 0.00 | 31 | 1018.1 |
| 20260509234356 | 71 | 283 | 0.0 | 7.8 | 0.00 | 0.00 | 0.00 | 30 | 1018.2 |
| 20260509233854 | 72 | 234 | 2.6 | 6.1 | 0.00 | 0.00 | 0.00 | 31 | 1018.2 |
| 20260509233351 | 71 | 282 | 5.2 | 6.1 | 0.00 | 0.00 | 0.00 | 31 | 1018.5 |
| 20260509232846 | 71 | 79 | 4.3 | 4.3 | 0.00 | 0.00 | 0.00 | 30 | 1018.3 |
| 20260509232345 | 71 | 273 | 2.6 | 9.6 | 0.00 | 0.00 | 0.00 | 31 | 1018.5 |
| 20260509231840 | 70 | 90 | 0.0 | 3.5 | 0.00 | 0.00 | 0.00 | 30 | 1018.7 |
| 20260509231337 | 69 | 94 | 2.6 | 3.5 | 0.00 | 0.00 | 0.00 | 30 | 1018.3 |
| 20260509230835 | 69 | 353 | 5.2 | 6.1 | 0.00 | 0.00 | 0.00 | 30 | 1018.3 |
| 20260509230332 | 70 | 225 | 1.7 | 6.1 | 0.00 | 0.00 | 0.00 | 30 | 1018.7 |